TimeCDT,TemperatureF,Dew PointF,Humidity,Sea Level PressureIn,VisibilityMPH,Wind Direction,Wind SpeedMPH,Gust SpeedMPH,PrecipitationIn,Events,Conditions,WindDirDegrees,DateUTC
12:15 AM,53.6,50.9,91,29.67,10.0,Calm,Calm,-,N/A,,Overcast,0,2013-03-24 05:15:00
12:35 AM,53.2,50.9,92,29.67,10.0,Calm,Calm,-,N/A,,Overcast,0,2013-03-24 05:35:00
12:55 AM,53.1,50.9,92,29.66,10.0,Calm,Calm,-,N/A,,Overcast,0,2013-03-24 05:55:00
1:15 AM,53.2,50.9,92,29.66,10.0,Calm,Calm,-,N/A,,Overcast,0,2013-03-24 06:15:00
1:35 AM,53.1,50.9,92,29.66,7.0,Calm,Calm,-,N/A,,Overcast,0,2013-03-24 06:35:00
1:55 AM,53.1,50.9,92,29.66,4.0,Calm,Calm,-,N/A,,Overcast,0,2013-03-24 06:55:00
2:35 AM,52.9,50.9,93,29.65,1.0,Calm,Calm,-,N/A,,Overcast,0,2013-03-24 07:35:00
2:55 AM,52.9,50.9,93,29.64,0.5,Calm,Calm,-,N/A,Fog,Fog,0,2013-03-24 07:55:00
3:15 AM,53.1,51.1,93,29.65,0.5,Calm,Calm,-,N/A,Fog,Fog,0,2013-03-24 08:15:00
3:35 AM,53.2,51.3,93,29.72,1.0,West,13.8,23.0,N/A,,Overcast,280,2013-03-24 08:35:00
3:55 AM,52.7,50.7,93,29.71,0.8,WNW,6.9,-,N/A,,Overcast,290,2013-03-24 08:55:00
4:15 AM,52.3,50.4,93,29.69,0.8,Calm,Calm,-,N/A,,Overcast,0,2013-03-24 09:15:00
4:35 AM,52.0,50.0,93,29.69,1.5,WNW,6.9,-,N/A,,Overcast,300,2013-03-24 09:35:00
4:55 AM,51.8,49.8,93,29.69,1.0,Calm,Calm,-,N/A,,Overcast,0,2013-03-24 09:55:00
5:15 AM,51.3,49.3,93,29.70,1.5,WNW,10.4,16.1,N/A,,Overcast,300,2013-03-24 10:15:00
5:35 AM,51.3,49.3,93,29.72,2.5,WNW,15.0,19.6,N/A,,Overcast,290,2013-03-24 10:35:00
5:55 AM,51.1,49.1,93,29.75,1.5,West,12.7,18.4,N/A,,Overcast,280,2013-03-24 10:55:00
6:15 AM,50.9,49.1,94,29.75,3.0,West,13.8,19.6,N/A,,Overcast,280,2013-03-24 11:15:00
6:35 AM,50.9,48.7,92,29.75,4.0,West,12.7,17.3,N/A,,Light Drizzle,280,2013-03-24 11:35:00
6:55 AM,50.9,48.6,92,29.73,7.0,Calm,Calm,-,N/A,,Overcast,0,2013-03-24 11:55:00
7:15 AM,50.9,48.4,91,29.74,10.0,Calm,Calm,-,N/A,,Overcast,0,2013-03-24 12:15:00
7:35 AM,50.9,48.6,92,29.74,7.0,Calm,Calm,-,N/A,,Overcast,0,2013-03-24 12:35:00
7:55 AM,51.3,48.7,91,29.74,10.0,Calm,Calm,-,N/A,,Overcast,0,2013-03-24 12:55:00
8:15 AM,51.8,48.7,89,29.75,10.0,West,13.8,18.4,N/A,,Overcast,270,2013-03-24 13:15:00
8:35 AM,51.8,48.2,88,29.77,10.0,West,15.0,20.7,N/A,,Overcast,280,2013-03-24 13:35:00
8:55 AM,51.8,47.3,85,29.78,10.0,West,17.3,31.1,N/A,,Overcast,280,2013-03-24 13:55:00
9:15 AM,52.0,46.8,82,29.78,10.0,WNW,13.8,31.1,N/A,,Overcast,290,2013-03-24 14:15:00
9:35 AM,52.2,46.6,81,29.79,10.0,West,18.4,24.2,N/A,,Overcast,260,2013-03-24 14:35:00
9:55 AM,51.8,45.1,78,29.80,10.0,West,17.3,24.2,N/A,,Overcast,280,2013-03-24 14:55:00
10:15 AM,50.9,42.3,72,29.81,10.0,West,23.0,31.1,N/A,,Overcast,280,2013-03-24 15:15:00
10:35 AM,52.2,38.8,60,29.83,10.0,West,25.3,34.5,N/A,,Overcast,280,2013-03-24 15:35:00
10:55 AM,51.8,39.6,63,29.84,10.0,WNW,18.4,26.5,N/A,,Overcast,290,2013-03-24 15:55:00
11:15 AM,51.4,38.5,61,29.86,10.0,West,18.4,29.9,N/A,,Overcast,270,2013-03-24 16:15:00
11:35 AM,50.2,37.9,63,29.87,10.0,West,21.9,34.5,N/A,,Overcast,270,2013-03-24 16:35:00
11:55 AM,49.5,36.9,62,29.87,10.0,WNW,16.1,28.8,N/A,,Overcast,290,2013-03-24 16:55:00
12:15 PM,50.4,36.1,58,29.88,10.0,West,18.4,27.6,N/A,,Overcast,260,2013-03-24 17:15:00
12:35 PM,50.7,34.7,54,29.89,10.0,West,19.6,28.8,N/A,,Mostly Cloudy,280,2013-03-24 17:35:00
12:55 PM,52.0,34.2,51,29.89,10.0,West,21.9,32.2,N/A,,Scattered Clouds,280,2013-03-24 17:55:00
1:15 PM,51.4,33.4,50,29.88,10.0,WNW,21.9,28.8,N/A,,Mostly Cloudy,290,2013-03-24 18:15:00
1:35 PM,52.9,33.3,47,29.89,10.0,West,20.7,29.9,N/A,,Mostly Cloudy,270,2013-03-24 18:35:00
1:55 PM,50.9,31.5,47,29.89,10.0,West,19.6,32.2,N/A,,Mostly Cloudy,280,2013-03-24 18:55:00
2:15 PM,50.9,31.1,47,29.89,10.0,West,24.2,32.2,N/A,,Mostly Cloudy,280,2013-03-24 19:15:00
2:35 PM,53.2,31.6,44,29.89,10.0,West,23.0,31.1,N/A,,Scattered Clouds,280,2013-03-24 19:35:00
2:55 PM,53.1,31.1,43,29.89,10.0,WNW,21.9,34.5,N/A,,Scattered Clouds,300,2013-03-24 19:55:00
3:15 PM,53.2,32.0,44,29.89,10.0,West,15.0,32.2,N/A,,Scattered Clouds,270,2013-03-24 20:15:00
3:35 PM,53.8,31.3,42,29.90,10.0,West,18.4,31.1,N/A,,Mostly Cloudy,280,2013-03-24 20:35:00
3:55 PM,52.9,31.8,45,29.90,10.0,NW,15.0,31.1,N/A,,Scattered Clouds,310,2013-03-24 20:55:00
4:15 PM,54.0,30.7,41,29.91,10.0,West,25.3,28.8,N/A,,Scattered Clouds,280,2013-03-24 21:15:00
4:35 PM,53.2,31.3,43,29.91,10.0,WNW,13.8,25.3,N/A,,Mostly Cloudy,300,2013-03-24 21:35:00
4:55 PM,53.8,29.3,39,29.92,10.0,NW,17.3,29.9,N/A,,Scattered Clouds,310,2013-03-24 21:55:00
5:15 PM,54.3,30.7,41,29.92,10.0,NW,17.3,26.5,N/A,,Scattered Clouds,310,2013-03-24 22:15:00
5:35 PM,51.3,30.0,44,29.94,10.0,WNW,19.6,29.9,N/A,,Mostly Cloudy,290,2013-03-24 22:35:00
5:55 PM,52.0,29.3,42,29.95,10.0,NW,13.8,27.6,N/A,,Mostly Cloudy,310,2013-03-24 22:55:00
6:15 PM,49.6,29.3,46,29.96,10.0,WNW,19.6,26.5,N/A,,Mostly Cloudy,300,2013-03-24 23:15:00
6:35 PM,48.4,29.5,48,29.97,10.0,WNW,17.3,25.3,N/A,,Scattered Clouds,290,2013-03-24 23:35:00
6:55 PM,48.4,29.1,47,29.98,10.0,WNW,16.1,28.8,N/A,,Scattered Clouds,290,2013-03-24 23:55:00
7:15 PM,47.1,28.9,49,30.00,10.0,NW,11.5,19.6,N/A,,Scattered Clouds,310,2013-03-25 00:15:00
7:35 PM,45.9,28.2,50,30.01,10.0,WNW,15.0,25.3,N/A,,Clear,300,2013-03-25 00:35:00
7:55 PM,44.8,28.8,53,30.02,10.0,WNW,11.5,17.3,N/A,,Clear,300,2013-03-25 00:55:00
8:15 PM,44.6,28.9,54,30.03,10.0,NW,10.4,-,N/A,,Clear,310,2013-03-25 01:15:00
8:35 PM,43.9,28.8,55,30.03,10.0,NW,12.7,17.3,N/A,,Clear,320,2013-03-25 01:35:00
8:55 PM,43.7,28.4,55,30.03,10.0,NW,12.7,17.3,N/A,,Clear,310,2013-03-25 01:55:00
9:15 PM,43.0,28.2,56,30.04,10.0,NW,11.5,17.3,N/A,,Clear,310,2013-03-25 02:15:00
9:35 PM,42.4,28.2,57,30.06,10.0,NW,8.1,-,N/A,,Clear,310,2013-03-25 02:35:00
9:55 PM,41.4,28.8,61,30.06,10.0,Calm,Calm,-,N/A,,Clear,0,2013-03-25 02:55:00
10:15 PM,40.6,29.3,64,30.07,10.0,Calm,Calm,-,N/A,,Clear,0,2013-03-25 03:15:00
10:35 PM,40.8,29.3,64,30.07,10.0,Calm,Calm,-,N/A,,Clear,0,2013-03-25 03:35:00
10:55 PM,40.6,29.3,64,30.08,10.0,NW,6.9,-,N/A,,Clear,320,2013-03-25 03:55:00
11:15 PM,40.6,28.9,63,30.09,10.0,Calm,Calm,-,N/A,,Clear,0,2013-03-25 04:15:00
11:35 PM,39.4,28.9,66,30.09,10.0,Calm,Calm,-,N/A,,Clear,0,2013-03-25 04:35:00
11:55 PM,40.1,28.4,63,30.09,10.0,NW,3.5,-,N/A,,Clear,320,2013-03-25 04:55:00